Terminal Aerodrome Forecast
Issued by NWS

Home | Current Version | Previous Version | Text Only | Print | Product List | Glossary On
Versions: 1 2 3 4 5 6 7 8 9 10 11 12 13 14 15 16 17 18 19 20 21 22 23 24 25 26 27 28 29 30 31 32 33 34 35
000
FTUS45 KTWC 211700
TAFOLS
TAF
KOLS 211731Z 2118/2218 VRB03KT P6SM SCT120 BKN230
     FM212000 30006KT P6SM FEW120 BKN230
     FM220200 VRB03KT P6SM BKN230=

USA.gov is the U.S. government's official web portal to all federal, state and local government web resources and services.